Vertical_Velocity
-1 2 -1 1 1 -2 0 1 -0 -1 -0 -2 -1 -0 -0 1 0 -1 1 2 -1 -0 1 1 -1 0 2 -0 -1 0 1 -1 3 -1 -1 -1 2 -1 -0 1 1 1 -2 -1 0 1 0 0 -1
-1 0 0 0 -1 2 4 1 -1 -1 -2 -0 -2 -1 -2 3 0 0 -1 1 1 -1 -1 -0 -0 -0 0 -1 -1 0 -1 -0 -2 1 1 -0 1 -1 1 4 0 -1 1 -1 -1 -0 -0 -0 1
0 1 3 4 1 2 1 0 1 -0 -1 -1 -1 -2 -1 -0 -1 -1 -1 -1 1 -1 -1 -0 -1 -1 -1 -1 -1 1 3 -1 -0 -1 1 1 3 -1 1 0 1 -0 -0 -1 1 0 1 2 2
0 1 3 -1 -1 -1 1 1 -1 1 0 0 1 -1 -2 1 1 -0 -2 -2 -1 -1 1 2 0 -0 -1 -0 1 -0 -1 2 2 3 -0 1 2 -3 1 2 2 0 -0 1 1 1 -2 -0 -0
-0 1 -0 0 -2 -1 -1 1 -1 1 1 1 2 -2 -0 0 1 -1 -1 -0 -0 -1 1 1 1 -1 0 -1 -2 0 -1 -2 3 5 2 3 -1 -1 0 0 -0 2 1 -0 -0 0 -2 -0 -1
0 1 -1 -0 1 -2 -2 0 -2 -2 1 -1 1 -2 -2 -1 3 -2 -1 -1 0 0 -2 -1 -2 2 -1 -0 -1 -0 -0 -1 -1 -2 1 3 1 0 1 2 1 2 -1 1 2 -1 -0 0 -0
-2 -1 -1 -1 -1 -0 -2 -2 2 0 2 -0 0 1 -1 -2 2 0 -2 0 -1 0 -1 -2 -1 -1 0 1 1 -0 2 -2 -1 -1 0 1 0 2 3 1 -1 -2 0 -2 2 -1 0 3 4
1 -1 -1 -0 -2 -1 -2 -1 -1 0 -1 -0 -1 -1 -1 -2 -2 1 -1 -0 -0 -0 0 -2 -2 -1 -1 -1 -0 1 -1 6 2 0 3 -2 -1 0 1 1 1 0 -1 -1 2 4 4 0 3
-0 -1 -1 -1 0 2 -1 -3 1 -1 -2 0 0 -2 1 -3 -2 -1 -2 -1 -1 0 0 -0 -0 -0 -2 -2 -2 -1 2 1 2 -1 2 -0 -2 -1 -1 4 2 0 -2 3 -2 1 3 5 1
-2 -3 -2 -3 -1 -0 -1 -1 0 -1 0 -1 1 -2 1 -2 0 1 -1 -1 -0 -0 0 -1 0 1 1 -3 -3 -2 -3 -1 0 2 -2 -1 1 -1 -3 -0 0 1 2 -0 2 1 -1 0 6
-0 -2 -2 -0 -1 -1 -1 1 -1 -0 1 -0 0 0 -1 -2 -1 2 0 -1 -1 0 0 -0 0 0 1 0 -1 -1 -2 -2 -1 -3 -3 1 -2 -0 1 0 5 2 2 1 2 0 1 1 2
-2 -1 -5 -2 1 -2 -2 0 -2 -1 -1 1 -0 0 -1 -1 -0 0 2 0 0 -1 -1 -2 -1 -0 -0 0 -1 -2 -1 -0 2 2 -1 -0 -0 -1 0 1 -0 -0 1 1 0 1 1 1 1
-2 -2 -0 -2 -5 -1 -2 -2 -1 -2 -2 1 0 -4 -0 -4 -1 -1 -0 -0 0 1 0 -1 -1 -0 -1 0 1 0 -2 -3 -2 -0 1 -0 0 -0 0 -0 0 -1 -1 -1 1 3 2 1 3
-1 -1 -0 -2 0 -3 -3 -2 -1 -3 -3 -2 -1 -1 2 -1 -3 -2 0 1 -0 1 -2 -1 -0 -1 -2 0 1 0 -0 -2 -1 -1 0 0 -0 -0 1 0 1 -0 -0 -1 1 -0 2 0 2
-2 -1 -0 -2 -1 1 -3 1 -1 1 -4 -5 -1 2 -1 -4 -4 -2 -0 -0 -0 -1 1 -2 -1 1 0 -2 1 1 -1 -0 -1 -1 -2 -3 -0 0 -0 1 -1 -0 -0 -1 -2 -0 1 1 1
0 1 0 0 -0 -1 -1 0 3 -1 1 -2 -2 -3 4 2 -2 -3 -2 -0 -0 -1 -2 -2 -1 -1 0 -0 -2 1 1 -0 -2 -2 -2 -1 -2 -1 -0 1 1 0 -1 -1 -2 -0 1 -1 -0
-1 2 3 0 1 0 1 -0 2 -2 -0 2 -1 -1 -2 -1 -0 2 -1 -1 -1 -1 -2 -3 -3 -1 -1 -1 -0 -1 -0 1 0 -2 -1 -2 -0 -1 -1 -1 1 1 0 -1 -1 -1 -0 -1 -1
-1 -1 1 2 1 2 1 1 -2 -0 -1 -0 1 -1 -1 -4 -2 -2 2 -1 -0 1 -1 -0 -1 -4 -2 -0 0 1 1 -0 1 -0 -2 -2 -1 -1 -2 -1 0 0 1 -1 -0 -1 -0 0 -1
0 -0 -0 2 2 -1 4 -0 -2 1 -1 -0 8 -3 3 -1 -4 -3 -2 -1 -2 -1 -0 -1 -0 -0 -2 -2 -1 -2 0 -1 1 1 2 1 -2 -3 -2 -3 -1 0 0 -0 6 1 -1 -1 1
1 0 0 -0 1 1 -1 -3 -2 -2 -2 -2 -1 1 -3 -0 -2 -1 -2 -1 -1 1 4 3 2 -2 -2 -4 -2 1 -2 -1 -2 -1 0 -0 -1 -1 -1 0 0 -1 0 4 5 1 0 0 -1
1 0 1 0 -0 1 0 0 -4 -2 -3 -4 -0 -2 -2 2 -2 -1 0 -1 0 0 1 1 2 -0 -2 -1 -2 -2 -0 -2 1 1 2 1 1 1 0 -1 0 -1 0 1 3 -2 0 4 4
1 -1 0 -1 -3 -2 1 -0 -2 -1 -1 1 -1 3 6 4 0 -3 2 -1 -0 -2 -0 -0 -1 0 -1 -2 0 1 0 -0 1 -0 -1 -1 -0 0 1 1 1 -0 1 0 -1 -1 -1 -0 0
0 -1 -1 1 -2 1 2 0 -0 -3 -3 -1 1 -0 -1 -1 -1 -3 1 -2 1 2 -1 -2 2 3 1 1 1 1 1 0 0 0 1 -0 1 -2 -1 -0 2 1 0 1 2 0 1 -1 -1
-1 -1 -2 -2 -0 3 2 1 4 1 3 2 -4 3 -5 2 2 -0 -2 1 0 2 2 -1 -1 0 2 -1 1 0 4 3 1 -0 -1 -0 1 1 -0 -0 2 2 1 2 1 0 0 0 0
-1 -1 -1 -1 -2 1 3 2 0 0 -4 1 -2 -7 9 -3 4 2 -2 -3 -1 0 -2 -1 0 0 -0 2 3 1 -1 -0 2 1 2 1 1 2 1 -1 0 1 2 1 0 -0 -1 0 0
-0 0 -1 -2 -3 2 1 -0 2 1 -2 -0 5 2 10 -2 8 1 -0 -5 -4 -2 4 0 1 -2 -2 2 2 4 0 -0 -1 -2 0 -0 -3 1 2 2 3 1 -0 -1 -1 0 -2 -2 -1
-2 -0 -0 -2 -5 -1 -0 -2 2 4 2 7 5 -7 -4 7 4 -1 -1 -2 -1 1 2 -1 -4 -4 -2 -1 -1 -2 0 5 0 0 1 4 2 1 -1 0 4 3 1 -0 -1 -1 -1 0 2
-2 -1 0 -4 -3 -1 -1 -1 3 1 2 5 5 -0 5 0 -2 -0 -11 -8 -1 2 5 -3 -1 1 5 -16 1 4 8 -7 1 -2 -1 1 -2 4 1 -2 1 4 1 -0 -0 -1 -0 -2 -1
-2 -1 -1 -0 -2 -3 1 -3 1 6 1 4 2 -5 -0 7 2 -3 -1 -0 -0 0 3 -1 -1 8 6 9 1 3 3 4 -2 3 -2 -2 -1 2 2 -1 1 0 1 2 2 -1 -2 -0 1
-1 -2 0 -0 -0 0 0 -3 -1 1 6 2 6 2 -4 -2 -1 -1 0 2 2 -1 6 -0 -1 3 2 6 29 -1 -3 1 -2 -0 -2 -4 -3 -1 0 -0 -2 -1 -1 -1 -0 -1 -1 1 6
Height
5908 5909 5909 5908 5911 5908 5908 5909 5907 5906 5907 5908 5908 5910 5910 5911 5911 5913 5911 5914 5913 5912 5913 5914 5915 5916 5917 5917 5916 5914 5913 5913 5915 5916 5919 5921 5923 5924 5925 5926 5929 5932 5934 5934 5934 5936 5937 5937 5938
5911 5911 5912 5912 5913 5912 5913 5912 5911 5910 5910 5911 5912 5912 5913 5914 5913 5913 5914 5916 5916 5915 5916 5917 5918 5918 5919 5918 5917 5915 5913 5912 5915 5918 5921 5923 5925 5927 5929 5930 5933 5936 5937 5937 5937 5938 5939 5939 5939
5915 5914 5916 5915 5914 5915 5915 5914 5913 5913 5913 5914 5915 5915 5915 5916 5916 5916 5917 5918 5919 5919 5919 5920 5921 5921 5922 5920 5919 5917 5916 5916 5917 5920 5923 5925 5927 5929 5931 5935 5937 5938 5939 5939 5939 5940 5941 5941 5941
5918 5919 5920 5917 5917 5916 5916 5916 5915 5916 5916 5916 5915 5916 5917 5919 5919 5919 5919 5920 5921 5922 5923 5923 5923 5925 5925 5923 5922 5921 5920 5920 5922 5924 5925 5927 5929 5931 5935 5937 5939 5941 5941 5941 5942 5942 5942 5940 5942
5922 5921 5920 5920 5919 5918 5917 5917 5917 5917 5918 5919 5919 5917 5918 5919 5922 5922 5922 5923 5924 5925 5926 5926 5926 5927 5927 5926 5925 5924 5925 5925 5925 5926 5929 5931 5934 5935 5938 5940 5941 5942 5943 5943 5943 5943 5943 5942 5943
5926 5926 5924 5923 5920 5920 5920 5919 5919 5920 5921 5920 5920 5919 5919 5920 5924 5924 5924 5925 5927 5928 5928 5929 5929 5929 5929 5929 5927 5927 5928 5929 5929 5932 5933 5935 5936 5938 5940 5942 5943 5944 5945 5946 5945 5946 5945 5945 5946
5930 5928 5927 5925 5923 5922 5922 5922 5921 5921 5921 5921 5922 5922 5921 5922 5924 5926 5927 5928 5929 5930 5930 5930 5930 5930 5931 5931 5931 5930 5931 5932 5933 5935 5936 5938 5939 5941 5942 5944 5945 5946 5947 5946 5947 5948 5947 5946 5947
5933 5932 5929 5927 5926 5925 5924 5924 5923 5923 5923 5924 5924 5924 5924 5924 5925 5927 5928 5929 5931 5931 5932 5932 5931 5933 5934 5933 5933 5933 5934 5936 5937 5938 5940 5941 5942 5943 5944 5945 5947 5947 5947 5947 5948 5947 5948 5948 5947
5936 5934 5932 5930 5928 5928 5927 5927 5926 5925 5925 5925 5926 5925 5927 5926 5926 5928 5930 5931 5932 5933 5934 5934 5935 5934 5936 5936 5936 5936 5937 5939 5940 5941 5943 5944 5944 5945 5946 5946 5947 5948 5947 5947 5948 5948 5949 5948 5947
5939 5937 5936 5934 5932 5931 5930 5930 5930 5930 5929 5928 5928 5928 5929 5929 5929 5931 5932 5933 5934 5935 5936 5936 5937 5938 5938 5938 5938 5938 5940 5941 5942 5943 5945 5945 5945 5947 5947 5947 5948 5947 5948 5948 5948 5948 5949 5949 5949
5943 5940 5939 5938 5936 5935 5933 5933 5934 5934 5932 5931 5931 5931 5931 5932 5932 5933 5934 5935 5936 5937 5938 5938 5938 5939 5940 5940 5940 5940 5942 5942 5943 5945 5946 5946 5947 5948 5948 5949 5949 5948 5949 5949 5949 5949 5950 5950 5950
5945 5944 5942 5941 5940 5938 5937 5936 5936 5937 5936 5935 5935 5935 5934 5934 5934 5935 5936 5937 5937 5938 5939 5940 5940 5941 5941 5941 5942 5943 5944 5944 5946 5947 5948 5949 5949 5949 5950 5950 5951 5950 5951 5951 5951 5950 5950 5950 5949
5947 5946 5945 5944 5943 5943 5941 5940 5939 5940 5939 5939 5938 5938 5937 5936 5936 5936 5938 5939 5939 5940 5940 5941 5942 5942 5943 5943 5944 5944 5946 5946 5947 5948 5949 5950 5950 5951 5952 5952 5952 5952 5952 5952 5952 5952 5951 5950 5950
5950 5949 5948 5947 5947 5946 5946 5944 5943 5943 5943 5944 5942 5941 5940 5938 5938 5938 5939 5940 5940 5940 5941 5942 5942 5943 5944 5944 5945 5945 5946 5948 5948 5950 5950 5951 5951 5952 5954 5954 5954 5953 5952 5953 5953 5953 5953 5952 5950
5952 5953 5952 5950 5950 5950 5949 5949 5947 5946 5944 5945 5945 5944 5944 5942 5941 5940 5940 5940 5940 5941 5941 5942 5943 5944 5945 5945 5946 5946 5947 5948 5949 5950 5951 5952 5953 5954 5954 5955 5955 5955 5953 5953 5953 5953 5952 5953 5951
5954 5955 5955 5954 5952 5951 5951 5952 5951 5949 5948 5947 5947 5947 5947 5945 5944 5944 5943 5941 5940 5941 5941 5942 5943 5944 5945 5946 5946 5948 5949 5948 5949 5950 5952 5952 5954 5954 5955 5956 5956 5955 5955 5954 5953 5953 5953 5952 5953
5955 5955 5955 5955 5954 5953 5953 5953 5952 5951 5951 5950 5949 5949 5949 5948 5946 5945 5946 5945 5943 5942 5942 5943 5943 5944 5944 5946 5947 5948 5949 5949 5950 5951 5952 5952 5953 5954 5955 5956 5956 5956 5956 5955 5954 5953 5953 5953 5953
5956 5956 5955 5955 5955 5954 5954 5954 5954 5954 5953 5952 5951 5951 5951 5949 5949 5947 5946 5947 5947 5946 5944 5943 5943 5944 5944 5945 5947 5948 5949 5950 5950 5951 5952 5952 5952 5953 5954 5955 5956 5956 5956 5955 5954 5953 5953 5953 5953
5956 5956 5955 5955 5954 5954 5954 5954 5955 5955 5955 5954 5953 5953 5953 5951 5950 5949 5948 5946 5946 5947 5946 5944 5944 5943 5943 5944 5945 5947 5948 5949 5951 5951 5951 5952 5951 5952 5952 5953 5955 5956 5956 5955 5954 5953 5953 5952 5952
5955 5955 5955 5954 5953 5953 5953 5952 5953 5954 5955 5956 5956 5956 5955 5954 5952 5950 5949 5948 5947 5946 5947 5946 5945 5943 5942 5942 5943 5945 5946 5948 5948 5950 5951 5951 5951 5952 5951 5952 5952 5954 5955 5954 5953 5952 5952 5952 5951
5955 5955 5953 5953 5953 5952 5952 5952 5951 5952 5954 5956 5957 5957 5957 5956 5954 5952 5949 5949 5948 5947 5946 5945 5945 5944 5943 5941 5940 5941 5944 5946 5947 5949 5951 5951 5951 5952 5951 5951 5951 5951 5953 5953 5952 5951 5951 5950 5951
5954 5953 5952 5952 5952 5951 5951 5952 5950 5952 5954 5956 5956 5957 5957 5957 5956 5953 5950 5949 5949 5947 5946 5944 5944 5943 5942 5941 5939 5938 5942 5945 5947 5947 5948 5949 5950 5950 5951 5951 5951 5950 5950 5950 5950 5950 5951 5951 5950
5953 5952 5952 5951 5952 5952 5951 5952 5951 5951 5952 5953 5955 5956 5955 5955 5955 5954 5952 5950 5948 5947 5945 5944 5943 5944 5942 5941 5939 5938 5940 5943 5945 5945 5946 5947 5948 5949 5948 5949 5949 5949 5949 5949 5949 5949 5950 5950 5949
5951 5951 5950 5950 5950 5952 5951 5951 5952 5952 5954 5954 5955 5955 5956 5955 5954 5954 5952 5949 5948 5947 5945 5944 5943 5941 5941 5940 5938 5938 5937 5939 5941 5943 5943 5943 5945 5946 5946 5947 5948 5948 5948 5947 5947 5947 5947 5947 5947
5950 5949 5949 5950 5949 5950 5950 5950 5950 5950 5952 5954 5954 5954 5955 5955 5955 5952 5951 5950 5947 5946 5945 5943 5941 5939 5938 5937 5937 5936 5936 5936 5937 5938 5941 5941 5941 5942 5943 5945 5946 5946 5946 5945 5945 5944 5944 5944 5944
5949 5949 5949 5948 5949 5949 5949 5949 5950 5950 5951 5952 5952 5953 5953 5953 5954 5952 5949 5948 5946 5944 5943 5942 5939 5937 5936 5934 5935 5935 5933 5932 5933 5934 5936 5938 5937 5939 5940 5941 5942 5943 5943 5942 5941 5941 5941 5941 5941
5947 5947 5947 5947 5948 5947 5946 5946 5948 5949 5949 5950 5950 5950 5951 5952 5951 5949 5949 5948 5946 5943 5940 5937 5935 5934 5932 5931 5932 5934 5934 5932 5930 5930 5931 5933 5934 5935 5935 5936 5938 5940 5939 5938 5938 5938 5938 5938 5938
5946 5946 5946 5944 5944 5945 5944 5944 5944 5945 5946 5947 5947 5947 5948 5947 5947 5947 5946 5946 5944 5941 5938 5936 5934 5931 5928 5926 5928 5929 5931 5931 5929 5924 5924 5927 5929 5931 5931 5932 5933 5935 5935 5935 5935 5935 5935 5934 5935
5943 5942 5942 5942 5942 5940 5941 5941 5941 5941 5942 5943 5943 5943 5944 5944 5944 5943 5942 5942 5941 5939 5936 5934 5933 5929 5923 5921 5919 5921 5924 5927 5927 5924 5918 5921 5923 5926 5928 5928 5929 5929 5930 5931 5931 5931 5932 5932 5933
5939 5938 5938 5938 5938 5935 5934 5936 5937 5936 5938 5938 5939 5939 5939 5939 5939 5938 5938 5938 5937 5936 5933 5931 5930 5925 5920 5914 5904 5909 5914 5919 5921 5922 5915 5917 5919 5921 5923 5925 5926 5926 5926 5927 5926 5927 5928 5929 5929